Location: Hertford
(51.8000°N, 0.0667°W)
Time: 12:26:44
(UTC+00:00)

Meteor 2-11 Rocket - Visible Passes

Search period start: 16 January 2021 00:00
Search period end: 26 January 2021 00:00
Orbit: 940 x 956 km, 82.5° (Epoch: 15 January)

Date Brightness Start Highest point End Pass type
(mag) Time Alt. Az. Time Alt. Az. Time Alt. Az.
16 Jan 5.1 04:15:58 24° SSE 04:19:32 51° E 04:25:29 10° NNE visible
16 Jan 5.0 06:00:19 15° SW 06:04:39 34° WNW 06:10:13 10° N visible
17 Jan 7.0 02:51:12 13° E 02:52:51 15° ENE 02:56:03 10° NE visible
17 Jan 4.5 04:35:23 57° SSE 04:36:37 75° E 04:42:47 10° NNE visible
17 Jan 5.4 06:19:34 19° W 06:22:10 24° WNW 06:27:06 10° N visible
17 Jan 7.0 17:02:38 10° NW 17:07:00 21° W 17:11:21 10° SW visible
18 Jan 6.5 03:09:32 22° E 03:09:37 22° E 03:14:08 10° NNE visible
18 Jan 4.3 04:53:41 77° W 04:53:47 77° W 05:00:00 10° N visible
18 Jan 5.8 06:37:50 15° WNW 06:39:46 18° NW 06:43:48 10° NNW visible
18 Jan 7.2 17:20:50 10° NW 17:23:46 14° WNW 17:26:42 10° WSW visible
19 Jan 6.1 03:27:29 30° ENE 03:27:29 30° ENE 03:31:49 10° NNE visible
19 Jan 4.6 05:11:36 52° NW 05:11:36 52° NW 05:17:08 10° N visible
19 Jan 6.0 06:55:44 11° WNW 06:57:30 13° NW 07:00:03 10° NNW visible
20 Jan 5.7 03:45:12 37° NE 03:45:12 37° NE 03:49:17 10° NNE visible
20 Jan 5.0 05:29:19 36° NW 05:29:19 36° NW 05:34:10 10° N visible
21 Jan 7.2 02:18:40 11° ENE 02:18:40 11° ENE 02:19:26 10° NE visible
21 Jan 5.5 04:02:46 39° NNE 04:02:46 39° NNE 04:06:38 10° NNE visible
21 Jan 5.4 05:46:53 26° NW 05:46:53 26° NW 05:51:06 10° N visible
22 Jan 6.9 02:36:08 15° NE 02:36:08 15° NE 02:37:47 10° NE visible
22 Jan 5.4 04:20:15 38° N 04:20:15 38° N 04:23:52 10° N visible
22 Jan 5.8 06:04:21 19° NW 06:04:21 19° NW 06:07:52 10° NNW visible
23 Jan 6.7 02:53:33 19° NE 02:53:33 19° NE 02:55:33 10° NNE visible
23 Jan 5.5 04:37:39 33° N 04:37:39 33° N 04:41:01 10° N visible
23 Jan 6.1 06:21:45 14° NW 06:21:45 14° NW 06:24:19 10° NNW visible
24 Jan 6.5 03:10:54 21° NNE 03:10:54 21° NNE 03:13:05 10° NNE visible
24 Jan 5.6 04:55:00 27° NNW 04:55:00 27° NNW 04:58:05 10° N visible
25 Jan 6.3 03:28:12 23° NNE 03:28:12 23° NNE 03:30:28 10° NNE visible
25 Jan 5.8 05:12:18 22° NNW 05:12:18 22° NNW 05:15:04 10° N visible
